Lid_Strength_Index
0 1 1 1 1 1 0 0 -1 -1 -1 -1 -1 -1 -1 -0 -0 -1 -0 -0 -0 0
1 0 0 -0 -0 -0 -1 -0 -1 -1 -1 -1 -1 -1 -1 -0 -1 -1 -1 -1 -1 0
0 -0 -0 -0 -0 -1 -1 -1 -0 -0 -1 -1 -1 -1 -1 -1 -1 -1 -0 0 -1 -0
0 -0 -0 -0 -0 -0 -1 -1 -0 -0 -0 -0 -1 -1 -1 -1 -0 0 -0 -1 -0 -0
-0 -0 -0 -0 -0 -1 -0 -1 -0 -0 -0 -0 -0 -1 -0 0 -0 0 0 0 -0 0
0 -0 -0 -0 -0 -0 -0 -0 -0 -0 -0 -0 -0 -0 -0 -0 -0 0 0 0 0 0
0 0 0 -0 -0 -0 -0 -0 -0 -0 -0 -0 -0 -0 -0 0 0 0 0 -0 -0 -0
1 1 1 1 1 0 0 1 1 1 1 0 0 1 0 0 0 0 0 0 -0 -0
3 3 2 2 2 2 2 2 2 2 2 2 2 5 5 2 0 0 1 1 0 0
4 4 4 3 3 3 3 3 3 3 2 2 1 5 5 5 1 1 1 1 1 1
5 5 5 4 4 4 4 4 3 3 3 3 3 7 8 7 2 1 1 0 0 0
4 5 5 4 4 4 4 3 4 4 4 4 3 6 7 6 3 4 5 4 4 3
4 4 4 4 4 4 4 5 5 4 3 5 4 7 9 9 8 8 8 6 5 7
5 5 5 5 5 5 5 6 6 7 9 10 9 8 10 10 8 8 6 6 5 5